Time,TemperatureF,DewpointF,PressureIn,WindDirection,WindDirectionDegrees,WindSpeedMPH,WindSpeedGustMPH,Humidity,HourlyPrecipIn,Conditions,Clouds,dailyrainin,SoftwareType,DateUTC
2013-06-28 00:01:00,80.2,65.8,29.95,WNW,299,3.0,7.0,61,0.00,,,0.00,WUHU216DAVISVP2,2013-06-28 07:01:00,
2013-06-28 00:06:00,80.0,65.6,29.95,WNW,296,5.0,7.0,61,0.00,,,0.00,WUHU216DAVISVP2,2013-06-28 07:06:00,
2013-06-28 00:11:00,79.9,64.8,29.95,WNW,294,3.0,6.0,60,0.00,,,0.00,WUHU216DAVISVP2,2013-06-28 07:11:00,
2013-06-28 00:16:00,79.8,65.4,29.95,WNW,292,2.0,6.0,61,0.00,,,0.00,WUHU216DAVISVP2,2013-06-28 07:16:00,
2013-06-28 00:21:00,79.7,64.8,29.95,WNW,291,3.0,7.0,60,0.00,,,0.00,WUHU216DAVISVP2,2013-06-28 07:21:00,
2013-06-28 00:26:00,79.5,65.1,29.95,WNW,284,0.0,7.0,61,0.00,,,0.00,WUHU216DAVISVP2,2013-06-28 07:26:00,
2013-06-28 00:31:00,79.4,64.5,29.95,WNW,303,5.0,7.0,60,0.00,,,0.00,WUHU216DAVISVP2,2013-06-28 07:31:00,
2013-06-28 00:36:00,79.4,64.3,29.95,WNW,292,4.0,8.0,60,0.00,,,0.00,WUHU216DAVISVP2,2013-06-28 07:36:00,
2013-06-28 00:41:00,79.3,64.2,29.94,WNW,295,5.0,8.0,60,0.00,,,0.00,WUHU216DAVISVP2,2013-06-28 07:41:00,
2013-06-28 00:46:00,79.2,64.3,29.95,WNW,296,6.0,8.0,60,0.00,,,0.00,WUHU216DAVISVP2,2013-06-28 07:46:00,
2013-06-28 00:51:00,79.1,64.3,29.95,WNW,298,4.0,7.0,60,0.00,,,0.00,WUHU216DAVISVP2,2013-06-28 07:51:00,
2013-06-28 00:56:00,79.1,63.8,29.95,WNW,284,3.0,8.0,59,0.00,,,0.00,WUHU216DAVISVP2,2013-06-28 07:56:00,
2013-06-28 01:01:00,79.1,63.3,29.94,WNW,300,4.0,9.0,58,0.00,,,0.00,WUHU216DAVISVP2,2013-06-28 08:01:00,
2013-06-28 01:06:00,79.0,63.2,29.94,NW,311,6.0,9.0,58,0.00,,,0.00,WUHU216DAVISVP2,2013-06-28 08:06:00,
2013-06-28 01:11:00,78.8,63.5,29.94,WNW,292,7.0,8.0,59,0.00,,,0.00,WUHU216DAVISVP2,2013-06-28 08:11:00,
2013-06-28 01:16:00,78.5,63.0,29.94,WNW,302,5.0,8.0,59,0.00,,,0.00,WUHU216DAVISVP2,2013-06-28 08:16:00,
2013-06-28 01:21:00,78.4,62.9,29.94,WNW,288,3.0,8.0,59,0.00,,,0.00,WUHU216DAVISVP2,2013-06-28 08:21:00,
2013-06-28 01:26:00,78.3,62.8,29.94,WNW,289,5.0,8.0,59,0.00,,,0.00,WUHU216DAVISVP2,2013-06-28 08:26:00,
2013-06-28 01:31:00,78.1,63.3,29.94,WNW,295,4.0,8.0,60,0.00,,,0.00,WUHU216DAVISVP2,2013-06-28 08:31:00,
2013-06-28 01:36:00,78.0,63.2,29.94,WNW,298,2.0,8.0,60,0.00,,,0.00,WUHU216DAVISVP2,2013-06-28 08:36:00,
2013-06-28 01:41:00,77.8,63.0,29.94,WNW,302,5.0,8.0,60,0.00,,,0.00,WUHU216DAVISVP2,2013-06-28 08:41:00,
2013-06-28 01:46:00,77.8,63.0,29.94,NW,314,3.0,8.0,60,0.00,,,0.00,WUHU216DAVISVP2,2013-06-28 08:46:00,
2013-06-28 01:51:00,77.6,62.8,29.94,NW,312,3.0,7.0,60,0.00,,,0.00,WUHU216DAVISVP2,2013-06-28 08:51:00,
2013-06-28 01:56:00,77.3,63.0,29.94,NW,311,2.0,7.0,61,0.00,,,0.00,WUHU216DAVISVP2,2013-06-28 08:56:00,
2013-06-28 02:01:00,77.1,62.8,29.94,NW,306,3.0,7.0,61,0.00,,,0.00,WUHU216DAVISVP2,2013-06-28 09:01:00,
2013-06-28 02:06:00,77.0,63.0,29.94,NW,318,5.0,7.0,62,0.00,,,0.00,WUHU216DAVISVP2,2013-06-28 09:06:00,
2013-06-28 02:11:00,76.7,62.9,29.94,NW,318,3.0,6.0,62,0.00,,,0.00,WUHU216DAVISVP2,2013-06-28 09:11:00,
2013-06-28 02:16:00,76.6,63.1,29.94,NW,318,1.0,6.0,63,0.00,,,0.00,WUHU216DAVISVP2,2013-06-28 09:16:00,
2013-06-28 02:21:00,76.4,62.9,29.93,NW,318,3.0,5.0,63,0.00,,,0.00,WUHU216DAVISVP2,2013-06-28 09:21:00,
2013-06-28 02:26:00,76.3,62.8,29.93,NW,318,2.0,5.0,63,0.00,,,0.00,WUHU216DAVISVP2,2013-06-28 09:26:00,
2013-06-28 02:31:00,76.1,62.8,29.93,NW,318,0.0,5.0,63,0.00,,,0.00,WUHU216DAVISVP2,2013-06-28 09:31:00,
2013-06-28 02:36:00,76.0,62.7,29.93,NW,318,0.0,5.0,63,0.00,,,0.00,WUHU216DAVISVP2,2013-06-28 09:36:00,
2013-06-28 02:41:00,76.0,62.7,29.93,NW,318,2.0,5.0,63,0.00,,,0.00,WUHU216DAVISVP2,2013-06-28 09:41:00,
2013-06-28 02:46:00,75.9,62.6,29.93,NW,318,2.0,5.0,63,0.00,,,0.00,WUHU216DAVISVP2,2013-06-28 09:46:00,
2013-06-28 02:51:00,75.9,62.6,29.93,NW,318,4.0,5.0,63,0.00,,,0.00,WUHU216DAVISVP2,2013-06-28 09:51:00,
2013-06-28 02:56:00,75.9,62.6,29.93,NW,318,1.0,5.0,63,0.00,,,0.00,WUHU216DAVISVP2,2013-06-28 09:56:00,
2013-06-28 03:01:00,75.8,62.5,29.92,NW,318,1.0,5.0,63,0.00,,,0.00,WUHU216DAVISVP2,2013-06-28 10:01:00,
2013-06-28 03:06:00,75.5,62.0,29.93,NW,318,0.0,4.0,63,0.00,,,0.00,WUHU216DAVISVP2,2013-06-28 10:06:00,
2013-06-28 03:11:00,75.1,62.5,29.93,NW,318,0.0,2.0,65,0.00,,,0.00,WUHU216DAVISVP2,2013-06-28 10:11:00,
2013-06-28 03:16:00,74.5,62.4,29.92,NW,318,0.0,1.0,66,0.00,,,0.00,WUHU216DAVISVP2,2013-06-28 10:16:00,
2013-06-28 03:21:00,74.2,62.1,29.92,NW,318,0.0,1.0,66,0.00,,,0.00,WUHU216DAVISVP2,2013-06-28 10:21:00,
2013-06-28 03:26:00,73.8,62.6,29.92,NW,318,0.0,1.0,68,0.00,,,0.00,WUHU216DAVISVP2,2013-06-28 10:26:00,
2013-06-28 03:31:00,73.3,62.5,29.93,NW,318,0.0,0.0,69,0.00,,,0.00,WUHU216DAVISVP2,2013-06-28 10:31:00,
2013-06-28 03:36:00,73.1,62.5,29.93,NW,318,1.0,1.0,69,0.00,,,0.00,WUHU216DAVISVP2,2013-06-28 10:36:00,
2013-06-28 03:41:00,73.3,62.7,29.93,NW,318,2.0,3.0,69,0.00,,,0.00,WUHU216DAVISVP2,2013-06-28 10:41:00,
2013-06-28 03:46:00,73.4,62.8,29.92,NW,318,0.0,3.0,69,0.00,,,0.00,WUHU216DAVISVP2,2013-06-28 10:46:00,
2013-06-28 03:51:00,73.5,62.9,29.92,NW,318,2.0,4.0,69,0.00,,,0.00,WUHU216DAVISVP2,2013-06-28 10:51:00,
2013-06-28 03:56:00,73.5,62.9,29.93,NW,318,2.0,4.0,69,0.00,,,0.00,WUHU216DAVISVP2,2013-06-28 10:56:00,
2013-06-28 04:01:00,73.4,62.8,29.92,NW,318,0.0,4.0,69,0.00,,,0.00,WUHU216DAVISVP2,2013-06-28 11:01:00,
2013-06-28 04:06:00,73.3,63.1,29.92,NW,318,2.0,4.0,70,0.00,,,0.00,WUHU216DAVISVP2,2013-06-28 11:06:00,
2013-06-28 04:11:00,73.2,63.0,29.92,NW,318,2.0,4.0,70,0.00,,,0.00,WUHU216DAVISVP2,2013-06-28 11:11:00,
2013-06-28 04:16:00,73.3,63.1,29.92,NW,318,0.0,4.0,70,0.00,,,0.00,WUHU216DAVISVP2,2013-06-28 11:16:00,
2013-06-28 04:21:00,73.2,63.0,29.92,NW,318,1.0,4.0,70,0.00,,,0.00,WUHU216DAVISVP2,2013-06-28 11:21:00,
2013-06-28 04:26:00,72.9,62.7,29.92,NW,318,3.0,3.0,70,0.00,,,0.00,WUHU216DAVISVP2,2013-06-28 11:26:00,
2013-06-28 04:31:00,72.7,62.9,29.92,NW,318,2.0,3.0,71,0.00,,,0.00,WUHU216DAVISVP2,2013-06-28 11:31:00,
2013-06-28 04:36:00,72.6,62.8,29.92,NW,318,0.0,3.0,71,0.00,,,0.00,WUHU216DAVISVP2,2013-06-28 11:36:00,
2013-06-28 04:41:00,72.4,63.0,29.92,NW,318,2.0,3.0,72,0.00,,,0.00,WUHU216DAVISVP2,2013-06-28 11:41:00,
2013-06-28 04:46:00,72.1,62.7,29.92,NW,318,3.0,4.0,72,0.00,,,0.00,WUHU216DAVISVP2,2013-06-28 11:46:00,
2013-06-28 04:51:00,72.0,62.7,29.92,NW,318,2.0,4.0,72,0.00,,,0.00,WUHU216DAVISVP2,2013-06-28 11:51:00,
2013-06-28 04:56:00,72.2,62.8,29.92,NW,318,2.0,4.0,72,0.00,,,0.00,WUHU216DAVISVP2,2013-06-28 11:56:00,
2013-06-28 05:01:00,72.2,62.8,29.92,NW,318,1.0,4.0,72,0.00,,,0.00,WUHU216DAVISVP2,2013-06-28 12:01:00,
2013-06-28 05:06:00,72.1,62.7,29.93,NW,318,0.0,5.0,72,0.00,,,0.00,WUHU216DAVISVP2,2013-06-28 12:06:00,
2013-06-28 05:11:00,72.1,62.7,29.93,NW,318,2.0,5.0,72,0.00,,,0.00,WUHU216DAVISVP2,2013-06-28 12:11:00,
2013-06-28 05:16:00,72.0,62.7,29.93,NW,318,4.0,5.0,72,0.00,,,0.00,WUHU216DAVISVP2,2013-06-28 12:16:00,
2013-06-28 05:21:00,71.9,62.9,29.93,NW,318,0.0,4.0,73,0.00,,,0.00,WUHU216DAVISVP2,2013-06-28 12:21:00,
2013-06-28 05:26:00,71.5,62.6,29.93,NW,318,4.0,4.0,73,0.00,,,0.00,WUHU216DAVISVP2,2013-06-28 12:26:00,
2013-06-28 05:31:00,71.3,62.4,29.93,NW,318,0.0,4.0,73,0.00,,,0.00,WUHU216DAVISVP2,2013-06-28 12:31:00,
2013-06-28 05:36:00,71.3,62.7,29.93,NW,318,3.0,4.0,74,0.00,,,0.00,WUHU216DAVISVP2,2013-06-28 12:36:00,
2013-06-28 05:41:00,71.3,62.7,29.93,NW,318,2.0,4.0,74,0.00,,,0.00,WUHU216DAVISVP2,2013-06-28 12:41:00,
2013-06-28 05:46:00,71.2,62.6,29.93,NW,318,1.0,4.0,74,0.00,,,0.00,WUHU216DAVISVP2,2013-06-28 12:46:00,
2013-06-28 05:51:00,71.0,62.4,29.93,NW,318,3.0,3.0,74,0.00,,,0.00,WUHU216DAVISVP2,2013-06-28 12:51:00,
2013-06-28 05:56:00,70.8,62.3,29.93,NW,318,0.0,3.0,74,0.00,,,0.00,WUHU216DAVISVP2,2013-06-28 12:56:00,
2013-06-28 06:01:00,70.8,62.3,29.93,NW,318,2.0,3.0,74,0.00,,,0.00,WUHU216DAVISVP2,2013-06-28 13:01:00,
2013-06-28 06:06:00,70.8,62.3,29.93,NW,318,4.0,4.0,74,0.00,,,0.00,WUHU216DAVISVP2,2013-06-28 13:06:00,
2013-06-28 06:11:00,71.0,62.1,29.93,NW,318,0.0,4.0,73,0.00,,,0.00,WUHU216DAVISVP2,2013-06-28 13:11:00,
2013-06-28 06:16:00,71.2,62.3,29.93,NW,318,3.0,4.0,73,0.00,,,0.00,WUHU216DAVISVP2,2013-06-28 13:16:00,
2013-06-28 06:21:00,71.5,62.2,29.93,NW,318,3.0,5.0,72,0.00,,,0.00,WUHU216DAVISVP2,2013-06-28 13:21:00,
2013-06-28 06:26:00,71.7,62.0,29.94,NW,318,2.0,5.0,71,0.00,,,0.00,WUHU216DAVISVP2,2013-06-28 13:26:00,
2013-06-28 06:31:00,72.0,61.9,29.94,WNW,303,6.0,6.0,70,0.00,,,0.00,WUHU216DAVISVP2,2013-06-28 13:31:00,
2013-06-28 06:36:00,72.3,62.2,29.94,WNW,300,6.0,6.0,70,0.00,,,0.00,WUHU216DAVISVP2,2013-06-28 13:36:00,
2013-06-28 06:41:00,72.4,61.8,29.94,NW,320,3.0,6.0,69,0.00,,,0.00,WUHU216DAVISVP2,2013-06-28 13:41:00,
2013-06-28 06:46:00,72.6,61.6,29.94,WNW,298,4.0,6.0,68,0.00,,,0.00,WUHU216DAVISVP2,2013-06-28 13:46:00,
2013-06-28 06:51:00,72.9,61.9,29.94,WNW,298,3.0,7.0,68,0.00,,,0.00,WUHU216DAVISVP2,2013-06-28 13:51:00,
2013-06-28 06:56:00,73.1,61.7,29.95,NW,306,2.0,7.0,67,0.00,,,0.00,WUHU216DAVISVP2,2013-06-28 13:56:00,
2013-06-28 07:01:00,73.3,61.9,29.95,NW,306,2.0,6.0,67,0.00,,,0.00,WUHU216DAVISVP2,2013-06-28 14:01:00,
2013-06-28 07:06:00,73.5,61.7,29.95,NW,306,2.0,5.0,66,0.00,,,0.00,WUHU216DAVISVP2,2013-06-28 14:06:00,
2013-06-28 07:11:00,73.8,61.9,29.94,NW,310,3.0,5.0,66,0.00,,,0.00,WUHU216DAVISVP2,2013-06-28 14:11:00,
2013-06-28 07:16:00,74.1,62.2,29.94,NW,310,2.0,4.0,66,0.00,,,0.00,WUHU216DAVISVP2,2013-06-28 14:16:00,
2013-06-28 07:21:00,74.4,62.1,29.95,NNW,330,2.0,6.0,65,0.00,,,0.00,WUHU216DAVISVP2,2013-06-28 14:21:00,
2013-06-28 07:26:00,74.7,62.4,29.95,NNW,328,4.0,7.0,65,0.00,,,0.00,WUHU216DAVISVP2,2013-06-28 14:26:00,
2013-06-28 07:31:00,75.0,62.7,29.95,NNW,332,3.0,7.0,65,0.00,,,0.00,WUHU216DAVISVP2,2013-06-28 14:31:00,
2013-06-28 07:36:00,75.5,62.7,29.95,NW,313,4.0,6.0,64,0.00,,,0.00,WUHU216DAVISVP2,2013-06-28 14:36:00,
2013-06-28 07:41:00,76.1,62.4,29.95,NW,304,6.0,7.0,62,0.00,,,0.00,WUHU216DAVISVP2,2013-06-28 14:41:00,
2013-06-28 07:46:00,76.5,62.3,29.95,WNW,291,3.0,10.0,61,0.00,,,0.00,WUHU216DAVISVP2,2013-06-28 14:46:00,
2013-06-28 07:51:00,77.0,62.3,29.95,NW,316,6.0,10.0,60,0.00,,,0.00,WUHU216DAVISVP2,2013-06-28 14:51:00,
2013-06-28 07:56:00,77.5,62.7,29.95,NW,311,9.0,9.0,60,0.00,,,0.00,WUHU216DAVISVP2,2013-06-28 14:56:00,
2013-06-28 08:01:00,77.8,62.0,29.96,NW,305,4.0,9.0,58,0.00,,,0.00,WUHU216DAVISVP2,2013-06-28 15:01:00,
2013-06-28 08:06:00,78.0,62.2,29.95,WNW,302,4.0,9.0,58,0.00,,,0.00,WUHU216DAVISVP2,2013-06-28 15:06:00,
2013-06-28 08:11:00,78.5,62.7,29.95,NW,317,5.0,8.0,58,0.00,,,0.00,WUHU216DAVISVP2,2013-06-28 15:11:00,
2013-06-28 08:16:00,78.8,63.0,29.95,WNW,288,5.0,8.0,58,0.00,,,0.00,WUHU216DAVISVP2,2013-06-28 15:16:00,
2013-06-28 08:21:00,79.0,63.2,29.96,NW,308,2.0,8.0,58,0.00,,,0.00,WUHU216DAVISVP2,2013-06-28 15:21:00,
2013-06-28 08:26:00,79.4,62.8,29.96,NW,310,4.0,8.0,57,0.00,,,0.00,WUHU216DAVISVP2,2013-06-28 15:26:00,
2013-06-28 08:31:00,79.7,63.1,29.96,NW,309,4.0,8.0,57,0.00,,,0.00,WUHU216DAVISVP2,2013-06-28 15:31:00,
2013-06-28 08:36:00,80.2,63.6,29.96,NW,309,6.0,7.0,57,0.00,,,0.00,WUHU216DAVISVP2,2013-06-28 15:36:00,
2013-06-28 08:41:00,80.5,63.6,29.96,NW,317,4.0,7.0,56,0.00,,,0.00,WUHU216DAVISVP2,2013-06-28 15:41:00,
2013-06-28 08:46:00,81.0,64.0,29.96,NW,311,0.0,7.0,56,0.00,,,0.00,WUHU216DAVISVP2,2013-06-28 15:46:00,
2013-06-28 08:51:00,81.6,64.1,29.96,NW,304,7.0,7.0,55,0.00,,,0.00,WUHU216DAVISVP2,2013-06-28 15:51:00,
2013-06-28 08:56:00,81.8,63.7,29.96,WNW,296,5.0,9.0,54,0.00,,,0.00,WUHU216DAVISVP2,2013-06-28 15:56:00,
2013-06-28 09:01:00,81.8,64.3,29.96,WNW,296,0.0,9.0,55,0.00,,,0.00,WUHU216DAVISVP2,2013-06-28 16:01:00,
2013-06-28 09:06:00,82.2,64.1,29.96,WNW,299,6.0,6.0,54,0.00,,,0.00,WUHU216DAVISVP2,2013-06-28 16:06:00,
2013-06-28 09:11:00,82.9,63.6,29.96,West,267,0.0,6.0,52,0.00,,,0.00,WUHU216DAVISVP2,2013-06-28 16:11:00,
2013-06-28 09:16:00,83.3,64.4,29.95,NW,305,0.0,8.0,53,0.00,,,0.00,WUHU216DAVISVP2,2013-06-28 16:16:00,
2013-06-28 09:21:00,83.8,64.3,29.95,NW,304,3.0,8.0,52,0.00,,,0.00,WUHU216DAVISVP2,2013-06-28 16:21:00,
2013-06-28 09:26:00,84.0,64.5,29.95,NW,311,6.0,7.0,52,0.00,,,0.00,WUHU216DAVISVP2,2013-06-28 16:26:00,
2013-06-28 09:31:00,84.3,63.8,29.95,NW,306,7.0,9.0,50,0.00,,,0.00,WUHU216DAVISVP2,2013-06-28 16:31:00,
2013-06-28 09:36:00,84.2,64.3,29.95,NW,311,5.0,9.0,51,0.00,,,0.00,WUHU216DAVISVP2,2013-06-28 16:36:00,
2013-06-28 09:41:00,84.5,64.5,29.95,NW,320,6.0,8.0,51,0.00,,,0.00,WUHU216DAVISVP2,2013-06-28 16:41:00,
2013-06-28 09:46:00,85.0,65.0,29.95,WNW,301,2.0,8.0,51,0.00,,,0.00,WUHU216DAVISVP2,2013-06-28 16:46:00,
2013-06-28 09:51:00,85.4,64.8,29.95,WNW,284,7.0,10.0,50,0.00,,,0.00,WUHU216DAVISVP2,2013-06-28 16:51:00,
2013-06-28 09:56:00,85.4,64.2,29.95,WNW,302,7.0,11.0,49,0.00,,,0.00,WUHU216DAVISVP2,2013-06-28 16:56:00,
2013-06-28 10:01:00,85.6,64.4,29.95,NW,304,5.0,11.0,49,0.00,,,0.00,WUHU216DAVISVP2,2013-06-28 17:01:00,
2013-06-28 10:06:00,86.1,64.8,29.95,West,276,5.0,10.0,49,0.00,,,0.00,WUHU216DAVISVP2,2013-06-28 17:06:00,
2013-06-28 10:11:00,86.4,64.4,29.95,WNW,303,6.0,10.0,48,0.00,,,0.00,WUHU216DAVISVP2,2013-06-28 17:11:00,
2013-06-28 10:16:00,86.0,64.7,29.95,NW,311,5.0,10.0,49,0.00,,,0.00,WUHU216DAVISVP2,2013-06-28 17:16:00,
2013-06-28 10:21:00,85.8,64.6,29.95,NW,322,5.0,10.0,49,0.00,,,0.00,WUHU216DAVISVP2,2013-06-28 17:21:00,
2013-06-28 10:26:00,86.6,64.7,29.95,NW,319,5.0,10.0,48,0.00,,,0.00,WUHU216DAVISVP2,2013-06-28 17:26:00,
2013-06-28 10:31:00,87.1,64.5,29.94,WNW,301,6.0,10.0,47,0.00,,,0.00,WUHU216DAVISVP2,2013-06-28 17:31:00,
2013-06-28 10:36:00,87.3,65.3,29.94,WNW,303,6.0,10.0,48,0.00,,,0.00,WUHU216DAVISVP2,2013-06-28 17:36:00,
2013-06-28 10:41:00,87.6,65.5,29.94,NW,309,4.0,10.0,48,0.00,,,0.00,WUHU216DAVISVP2,2013-06-28 17:41:00,
2013-06-28 10:46:00,88.1,65.9,29.94,WNW,284,8.0,10.0,48,0.00,,,0.00,WUHU216DAVISVP2,2013-06-28 17:46:00,
2013-06-28 10:51:00,88.2,66.6,29.94,WNW,296,1.0,10.0,49,0.00,,,0.00,WUHU216DAVISVP2,2013-06-28 17:51:00,
2013-06-28 10:56:00,88.6,65.9,29.94,WNW,290,2.0,9.0,47,0.00,,,0.00,WUHU216DAVISVP2,2013-06-28 17:56:00,
2013-06-28 11:01:00,89.2,66.5,29.94,WNW,290,8.0,9.0,47,0.00,,,0.00,WUHU216DAVISVP2,2013-06-28 18:01:00,
2013-06-28 11:06:00,88.8,66.7,29.94,North,355,5.0,9.0,48,0.00,,,0.00,WUHU216DAVISVP2,2013-06-28 18:06:00,
2013-06-28 11:11:00,89.5,66.7,29.94,NNW,328,1.0,9.0,47,0.00,,,0.00,WUHU216DAVISVP2,2013-06-28 18:11:00,
2013-06-28 11:16:00,90.2,66.7,29.94,WNW,285,3.0,10.0,46,0.00,,,0.00,WUHU216DAVISVP2,2013-06-28 18:16:00,
2013-06-28 11:21:00,90.4,66.9,29.94,NW,324,5.0,10.0,46,0.00,,,0.00,WUHU216DAVISVP2,2013-06-28 18:21:00,
2013-06-28 11:26:00,90.8,67.3,29.93,NW,318,5.0,10.0,46,0.00,,,0.00,WUHU216DAVISVP2,2013-06-28 18:26:00,
2013-06-28 11:31:00,91.0,66.8,29.93,NW,313,1.0,11.0,45,0.00,,,0.00,WUHU216DAVISVP2,2013-06-28 18:31:00,
2013-06-28 11:36:00,91.1,66.2,29.94,NNW,344,4.0,11.0,44,0.00,,,0.00,WUHU216DAVISVP2,2013-06-28 18:36:00,
2013-06-28 11:41:00,90.7,64.5,29.93,NW,304,7.0,10.0,42,0.00,,,0.00,WUHU216DAVISVP2,2013-06-28 18:41:00,
2013-06-28 11:46:00,91.6,65.3,29.93,NNW,335,2.0,9.0,42,0.00,,,0.00,WUHU216DAVISVP2,2013-06-28 18:46:00,
2013-06-28 11:51:00,92.6,65.5,29.93,WNW,296,3.0,9.0,41,0.00,,,0.00,WUHU216DAVISVP2,2013-06-28 18:51:00,
2013-06-28 11:56:00,92.7,66.2,29.93,NW,304,7.0,9.0,42,0.00,,,0.00,WUHU216DAVISVP2,2013-06-28 18:56:00,
2013-06-28 12:01:00,92.0,67.7,29.93,NW,305,4.0,8.0,45,0.00,,,0.00,WUHU216DAVISVP2,2013-06-28 19:01:00,
2013-06-28 12:06:00,92.7,68.3,29.93,NE,46,0.0,8.0,45,0.00,,,0.00,WUHU216DAVISVP2,2013-06-28 19:06:00,
2013-06-28 12:11:00,92.7,65.6,29.93,West,273,5.0,8.0,41,0.00,,,0.00,WUHU216DAVISVP2,2013-06-28 19:11:00,
2013-06-28 12:16:00,93.2,66.0,29.93,NW,310,5.0,10.0,41,0.00,,,0.00,WUHU216DAVISVP2,2013-06-28 19:16:00,
2013-06-28 12:21:00,93.4,66.2,29.92,WNW,289,3.0,10.0,41,0.00,,,0.00,WUHU216DAVISVP2,2013-06-28 19:21:00,
2013-06-28 12:26:00,93.0,65.8,29.92,WNW,295,6.0,8.0,41,0.00,,,0.00,WUHU216DAVISVP2,2013-06-28 19:26:00,
2013-06-28 12:31:00,93.2,66.7,29.92,NW,307,0.0,8.0,42,0.00,,,0.00,WUHU216DAVISVP2,2013-06-28 19:31:00,
2013-06-28 12:36:00,94.1,66.8,29.92,WNW,296,6.0,8.0,41,0.00,,,0.00,WUHU216DAVISVP2,2013-06-28 19:36:00,
2013-06-28 12:41:00,94.7,65.9,29.92,NW,317,0.0,8.0,39,0.00,,,0.00,WUHU216DAVISVP2,2013-06-28 19:41:00,
2013-06-28 12:46:00,94.5,67.2,29.92,WNW,282,7.0,7.0,41,0.00,,,0.00,WUHU216DAVISVP2,2013-06-28 19:46:00,
2013-06-28 12:51:00,94.5,67.2,29.92,NNW,339,0.0,10.0,41,0.00,,,0.00,WUHU216DAVISVP2,2013-06-28 19:51:00,
2013-06-28 12:56:00,94.9,68.3,29.91,West,279,5.0,11.0,42,0.00,,,0.00,WUHU216DAVISVP2,2013-06-28 19:56:00,
2013-06-28 13:01:00,94.7,67.3,29.91,WNW,297,4.0,11.0,41,0.00,,,0.00,WUHU216DAVISVP2,2013-06-28 20:01:00,
2013-06-28 13:06:00,94.8,66.7,29.91,NW,308,7.0,11.0,40,0.00,,,0.00,WUHU216DAVISVP2,2013-06-28 20:06:00,
2013-06-28 13:11:00,94.6,66.5,29.91,WNW,290,5.0,11.0,40,0.00,,,0.00,WUHU216DAVISVP2,2013-06-28 20:11:00,
2013-06-28 13:16:00,94.7,66.6,29.90,WNW,286,5.0,11.0,40,0.00,,,0.00,WUHU216DAVISVP2,2013-06-28 20:16:00,
2013-06-28 13:21:00,95.4,67.2,29.90,NW,319,4.0,12.0,40,0.00,,,0.00,WUHU216DAVISVP2,2013-06-28 20:21:00,
2013-06-28 13:26:00,95.1,67.0,29.90,NW,315,3.0,12.0,40,0.00,,,0.00,WUHU216DAVISVP2,2013-06-28 20:26:00,
2013-06-28 13:31:00,95.4,67.3,29.90,WNW,296,4.0,9.0,40,0.00,,,0.00,WUHU216DAVISVP2,2013-06-28 20:31:00,
2013-06-28 13:36:00,96.4,67.4,29.90,NW,319,3.0,10.0,39,0.00,,,0.00,WUHU216DAVISVP2,2013-06-28 20:36:00,
2013-06-28 13:42:00,96.3,67.3,29.90,West,279,5.0,10.0,39,0.00,,,0.00,WUHU216DAVISVP2,2013-06-28 20:42:00,
2013-06-28 13:47:00,96.2,68.0,29.90,NW,316,5.0,11.0,40,0.00,,,0.00,WUHU216DAVISVP2,2013-06-28 20:47:00,
2013-06-28 13:52:00,96.8,67.8,29.89,NW,310,6.0,11.0,39,0.00,,,0.00,WUHU216DAVISVP2,2013-06-28 20:52:00,
2013-06-28 13:57:00,97.2,67.4,29.89,WNW,301,10.0,10.0,38,0.00,,,0.00,WUHU216DAVISVP2,2013-06-28 20:57:00,
2013-06-28 14:02:00,97.0,67.2,29.89,WNW,300,5.0,10.0,38,0.00,,,0.00,WUHU216DAVISVP2,2013-06-28 21:02:00,
2013-06-28 14:07:00,96.5,66.7,29.89,WNW,302,9.0,11.0,38,0.00,,,0.00,WUHU216DAVISVP2,2013-06-28 21:07:00,
2013-06-28 14:12:00,97.0,67.2,29.89,WNW,296,8.0,11.0,38,0.00,,,0.00,WUHU216DAVISVP2,2013-06-28 21:12:00,
2013-06-28 14:17:00,97.4,67.5,29.89,WNW,289,3.0,11.0,38,0.00,,,0.00,WUHU216DAVISVP2,2013-06-28 21:17:00,
2013-06-28 14:22:00,98.0,67.3,29.88,WNW,285,5.0,10.0,37,0.00,,,0.00,WUHU216DAVISVP2,2013-06-28 21:22:00,
2013-06-28 14:27:00,97.8,68.7,29.88,WNW,302,7.0,10.0,39,0.00,,,0.00,WUHU216DAVISVP2,2013-06-28 21:27:00,
2013-06-28 14:32:00,98.3,69.1,29.88,WNW,288,2.0,10.0,39,0.00,,,0.00,WUHU216DAVISVP2,2013-06-28 21:32:00,
2013-06-28 14:37:00,98.3,68.3,29.88,WNW,300,7.0,12.0,38,0.00,,,0.00,WUHU216DAVISVP2,2013-06-28 21:37:00,
2013-06-28 14:42:00,97.9,68.0,29.88,WNW,296,7.0,12.0,38,0.00,,,0.00,WUHU216DAVISVP2,2013-06-28 21:42:00,
2013-06-28 14:47:00,98.2,67.5,29.88,NW,308,8.0,11.0,37,0.00,,,0.00,WUHU216DAVISVP2,2013-06-28 21:47:00,
2013-06-28 14:52:00,97.8,67.9,29.87,NW,319,0.0,11.0,38,0.00,,,0.00,WUHU216DAVISVP2,2013-06-28 21:52:00,
2013-06-28 14:57:00,98.1,67.4,29.87,WNW,290,6.0,10.0,37,0.00,,,0.00,WUHU216DAVISVP2,2013-06-28 21:57:00,
2013-06-28 15:02:00,98.7,68.7,29.87,NNW,341,5.0,10.0,38,0.00,,,0.00,WUHU216DAVISVP2,2013-06-28 22:02:00,
2013-06-28 15:07:00,99.2,66.7,29.86,NW,312,7.0,10.0,35,0.00,,,0.00,WUHU216DAVISVP2,2013-06-28 22:07:00,
2013-06-28 15:12:00,99.0,68.2,29.86,WNW,298,5.0,11.0,37,0.00,,,0.00,WUHU216DAVISVP2,2013-06-28 22:12:00,
2013-06-28 15:17:00,99.4,68.5,29.86,WNW,303,0.0,11.0,37,0.00,,,0.00,WUHU216DAVISVP2,2013-06-28 22:17:00,
2013-06-28 15:22:00,99.2,68.3,29.86,WNW,284,5.0,11.0,37,0.00,,,0.00,WUHU216DAVISVP2,2013-06-28 22:22:00,
2013-06-28 15:27:00,99.2,66.7,29.85,West,280,8.0,14.0,35,0.00,,,0.00,WUHU216DAVISVP2,2013-06-28 22:27:00,
2013-06-28 15:32:00,99.5,67.0,29.85,WNW,301,9.0,14.0,35,0.00,,,0.00,WUHU216DAVISVP2,2013-06-28 22:32:00,
2013-06-28 15:37:00,99.2,67.5,29.85,NW,313,7.0,11.0,36,0.00,,,0.00,WUHU216DAVISVP2,2013-06-28 22:37:00,
2013-06-28 15:41:00,99.4,67.7,29.85,NW,315,5.0,12.0,36,0.00,,,0.00,WUHU216DAVISVP2,2013-06-28 22:41:00,
2013-06-28 15:46:00,99.8,66.4,29.84,West,273,9.0,12.0,34,0.00,,,0.00,WUHU216DAVISVP2,2013-06-28 22:46:00,
2013-06-28 15:51:00,100.3,67.7,29.84,NW,306,5.0,11.0,35,0.00,,,0.00,WUHU216DAVISVP2,2013-06-28 22:51:00,
2013-06-28 15:56:00,100.5,69.5,29.84,WNW,296,1.0,11.0,37,0.00,,,0.00,WUHU216DAVISVP2,2013-06-28 22:56:00,
2013-06-28 16:01:00,100.2,69.2,29.84,NW,323,0.0,13.0,37,0.00,,,0.00,WUHU216DAVISVP2,2013-06-28 23:01:00,
2013-06-28 16:06:00,100.3,68.5,29.83,WNW,298,13.0,13.0,36,0.00,,,0.00,WUHU216DAVISVP2,2013-06-28 23:06:00,
2013-06-28 16:11:00,99.9,68.1,29.83,NW,307,0.0,14.0,36,0.00,,,0.00,WUHU216DAVISVP2,2013-06-28 23:11:00,
2013-06-28 16:16:00,100.1,69.1,29.83,NW,304,6.0,14.0,37,0.00,,,0.00,WUHU216DAVISVP2,2013-06-28 23:16:00,
2013-06-28 16:21:00,100.5,69.5,29.83,WNW,301,8.0,11.0,37,0.00,,,0.00,WUHU216DAVISVP2,2013-06-28 23:21:00,
2013-06-28 16:26:00,100.7,69.7,29.83,NW,325,5.0,13.0,37,0.00,,,0.00,WUHU216DAVISVP2,2013-06-28 23:26:00,
2013-06-28 16:31:00,100.3,68.5,29.83,NNW,329,5.0,13.0,36,0.00,,,0.00,WUHU216DAVISVP2,2013-06-28 23:31:00,
2013-06-28 16:36:00,100.6,68.8,29.82,NW,308,9.0,11.0,36,0.00,,,0.00,WUHU216DAVISVP2,2013-06-28 23:36:00,
2013-06-28 16:41:00,100.4,68.6,29.82,NW,315,9.0,13.0,36,0.00,,,0.00,WUHU216DAVISVP2,2013-06-28 23:41:00,
2013-06-28 16:46:00,100.0,68.3,29.82,NW,323,10.0,13.0,36,0.00,,,0.00,WUHU216DAVISVP2,2013-06-28 23:46:00,
2013-06-28 16:51:00,100.4,67.8,29.82,North,355,6.0,11.0,35,0.00,,,0.00,WUHU216DAVISVP2,2013-06-28 23:51:00,
2013-06-28 16:56:00,100.7,68.9,29.82,NW,321,5.0,11.0,36,0.00,,,0.00,WUHU216DAVISVP2,2013-06-28 23:56:00,
2013-06-28 17:02:00,100.8,68.1,29.82,NW,321,8.0,11.0,35,0.00,,,0.00,WUHU216DAVISVP2,2013-06-29 00:02:00,
2013-06-28 17:07:00,100.5,67.8,29.82,NW,325,8.0,12.0,35,0.00,,,0.00,WUHU216DAVISVP2,2013-06-29 00:07:00,
2013-06-28 17:12:00,100.4,67.8,29.82,NW,307,7.0,12.0,35,0.00,,,0.00,WUHU216DAVISVP2,2013-06-29 00:12:00,
2013-06-28 17:17:00,100.6,67.9,29.82,NW,322,9.0,11.0,35,0.00,,,0.00,WUHU216DAVISVP2,2013-06-29 00:17:00,
2013-06-28 17:22:00,100.4,64.2,29.82,NW,311,13.0,13.0,31,0.00,,,0.00,WUHU216DAVISVP2,2013-06-29 00:22:00,
2013-06-28 17:27:00,100.4,64.2,29.82,NW,323,7.0,13.0,31,0.00,,,0.00,WUHU216DAVISVP2,2013-06-29 00:27:00,
2013-06-28 17:32:00,100.6,64.4,29.82,NNW,334,7.0,11.0,31,0.00,,,0.00,WUHU216DAVISVP2,2013-06-29 00:32:00,
2013-06-28 17:37:00,100.7,64.5,29.81,NNW,329,5.0,12.0,31,0.00,,,0.00,WUHU216DAVISVP2,2013-06-29 00:37:00,
2013-06-28 17:42:00,100.3,64.1,29.81,NW,315,6.0,12.0,31,0.00,,,0.00,WUHU216DAVISVP2,2013-06-29 00:42:00,
2013-06-28 17:47:00,100.2,63.2,29.81,NNW,338,10.0,11.0,30,0.00,,,0.00,WUHU216DAVISVP2,2013-06-29 00:47:00,
2013-06-28 17:52:00,99.9,61.0,29.81,NW,306,11.0,13.0,28,0.00,,,0.00,WUHU216DAVISVP2,2013-06-29 00:52:00,
2013-06-28 17:57:00,100.2,62.2,29.81,NW,304,6.0,13.0,29,0.00,,,0.00,WUHU216DAVISVP2,2013-06-29 00:57:00,
2013-06-28 18:02:00,100.4,61.3,29.81,NW,305,8.0,10.0,28,0.00,,,0.00,WUHU216DAVISVP2,2013-06-29 01:02:00,
2013-06-28 18:07:00,100.5,61.4,29.81,NW,321,6.0,10.0,28,0.00,,,0.00,WUHU216DAVISVP2,2013-06-29 01:07:00,
2013-06-28 18:12:00,100.0,62.0,29.81,WNW,292,8.0,10.0,29,0.00,,,0.00,WUHU216DAVISVP2,2013-06-29 01:12:00,
2013-06-28 18:17:00,99.9,61.9,29.81,WNW,302,9.0,10.0,29,0.00,,,0.00,WUHU216DAVISVP2,2013-06-29 01:17:00,
2013-06-28 18:22:00,99.7,61.7,29.81,NW,313,4.0,11.0,29,0.00,,,0.00,WUHU216DAVISVP2,2013-06-29 01:22:00,
2013-06-28 18:27:00,99.8,61.8,29.81,NW,320,0.0,11.0,29,0.00,,,0.00,WUHU216DAVISVP2,2013-06-29 01:27:00,
2013-06-28 18:32:00,99.9,60.9,29.81,NW,310,5.0,8.0,28,0.00,,,0.00,WUHU216DAVISVP2,2013-06-29 01:32:00,
2013-06-28 18:37:00,99.8,61.8,29.81,NW,307,5.0,9.0,29,0.00,,,0.00,WUHU216DAVISVP2,2013-06-29 01:37:00,
2013-06-28 18:42:00,99.8,61.9,29.81,NW,317,5.0,9.0,29,0.00,,,0.00,WUHU216DAVISVP2,2013-06-29 01:42:00,
2013-06-28 18:47:00,99.5,62.6,29.81,NW,309,0.0,9.0,30,0.00,,,0.00,WUHU216DAVISVP2,2013-06-29 01:47:00,
2013-06-28 18:52:00,99.3,62.3,29.81,WNW,302,0.0,9.0,30,0.00,,,0.00,WUHU216DAVISVP2,2013-06-29 01:52:00,
2013-06-28 18:57:00,99.0,63.0,29.81,NW,307,5.0,10.0,31,0.00,,,0.00,WUHU216DAVISVP2,2013-06-29 01:57:00,
2013-06-28 19:02:00,98.5,62.6,29.81,WNW,300,5.0,10.0,31,0.00,,,0.00,WUHU216DAVISVP2,2013-06-29 02:02:00,
2013-06-28 19:07:00,98.0,63.1,29.81,NW,313,3.0,9.0,32,0.00,,,0.00,WUHU216DAVISVP2,2013-06-29 02:07:00,
2013-06-28 19:12:00,97.6,63.6,29.81,NW,316,5.0,10.0,33,0.00,,,0.00,WUHU216DAVISVP2,2013-06-29 02:12:00,
2013-06-28 19:17:00,97.2,64.1,29.81,NNW,330,7.0,10.0,34,0.00,,,0.00,WUHU216DAVISVP2,2013-06-29 02:17:00,
2013-06-28 19:22:00,96.8,63.7,29.81,NW,310,1.0,9.0,34,0.00,,,0.00,WUHU216DAVISVP2,2013-06-29 02:22:00,
2013-06-28 19:27:00,96.5,64.3,29.81,WNW,296,8.0,9.0,35,0.00,,,0.00,WUHU216DAVISVP2,2013-06-29 02:27:00,
2013-06-28 19:32:00,96.1,64.8,29.81,NW,306,8.0,8.0,36,0.00,,,0.00,WUHU216DAVISVP2,2013-06-29 02:32:00,
2013-06-28 19:37:00,95.8,63.8,29.81,WNW,300,5.0,8.0,35,0.00,,,0.00,WUHU216DAVISVP2,2013-06-29 02:37:00,
2013-06-28 19:42:00,95.5,65.1,29.81,WNW,286,6.0,8.0,37,0.00,,,0.00,WUHU216DAVISVP2,2013-06-29 02:42:00,
2013-06-28 19:47:00,94.8,64.4,29.81,WNW,292,6.0,8.0,37,0.00,,,0.00,WUHU216DAVISVP2,2013-06-29 02:47:00,
2013-06-28 19:52:00,94.3,64.0,29.81,NW,304,9.0,9.0,37,0.00,,,0.00,WUHU216DAVISVP2,2013-06-29 02:52:00,
2013-06-28 19:57:00,94.1,63.0,29.81,WNW,300,6.0,9.0,36,0.00,,,0.00,WUHU216DAVISVP2,2013-06-29 02:57:00,
2013-06-28 20:02:00,93.8,62.8,29.81,WNW,294,6.0,9.0,36,0.00,,,0.00,WUHU216DAVISVP2,2013-06-29 03:02:00,
2013-06-28 20:07:00,93.2,63.8,29.81,WNW,293,3.0,7.0,38,0.00,,,0.00,WUHU216DAVISVP2,2013-06-29 03:07:00,
2013-06-28 20:12:00,92.7,64.1,29.81,WNW,293,0.0,6.0,39,0.00,,,0.00,WUHU216DAVISVP2,2013-06-29 03:12:00,
2013-06-28 20:17:00,92.3,64.5,29.81,WNW,293,4.0,5.0,40,0.00,,,0.00,WUHU216DAVISVP2,2013-06-29 03:17:00,
2013-06-28 20:22:00,92.0,64.2,29.81,WNW,293,3.0,6.0,40,0.00,,,0.00,WUHU216DAVISVP2,2013-06-29 03:22:00,
2013-06-28 20:27:00,91.7,64.0,29.81,WNW,293,0.0,6.0,40,0.00,,,0.00,WUHU216DAVISVP2,2013-06-29 03:27:00,
2013-06-28 20:32:00,91.4,64.4,29.81,WNW,293,5.0,6.0,41,0.00,,,0.00,WUHU216DAVISVP2,2013-06-29 03:32:00,
2013-06-28 20:37:00,91.2,64.2,29.81,WNW,291,4.0,6.0,41,0.00,,,0.00,WUHU216DAVISVP2,2013-06-29 03:37:00,
2013-06-28 20:42:00,90.9,64.0,29.81,WNW,286,3.0,6.0,41,0.00,,,0.00,WUHU216DAVISVP2,2013-06-29 03:42:00,
2013-06-28 20:47:00,90.6,64.4,29.82,WNW,288,4.0,6.0,42,0.00,,,0.00,WUHU216DAVISVP2,2013-06-29 03:47:00,
2013-06-28 20:52:00,90.4,64.2,29.82,WNW,288,3.0,8.0,42,0.00,,,0.00,WUHU216DAVISVP2,2013-06-29 03:52:00,
2013-06-28 20:57:00,90.1,64.6,29.82,WNW,292,4.0,8.0,43,0.00,,,0.00,WUHU216DAVISVP2,2013-06-29 03:57:00,
2013-06-28 21:01:00,89.8,64.3,29.82,WNW,289,3.0,7.0,43,0.00,,,0.00,WUHU216DAVISVP2,2013-06-29 04:01:00,
2013-06-28 21:06:00,89.5,64.1,29.82,NW,308,4.0,8.0,43,0.00,,,0.00,WUHU216DAVISVP2,2013-06-29 04:06:00,
2013-06-28 21:11:00,89.3,63.9,29.82,WNW,298,4.0,8.0,43,0.00,,,0.00,WUHU216DAVISVP2,2013-06-29 04:11:00,
2013-06-28 21:16:00,89.0,64.3,29.82,WNW,289,4.0,7.0,44,0.00,,,0.00,WUHU216DAVISVP2,2013-06-29 04:16:00,
2013-06-28 21:21:00,88.5,64.4,29.82,NW,306,3.0,6.0,45,0.00,,,0.00,WUHU216DAVISVP2,2013-06-29 04:21:00,
2013-06-28 21:26:00,88.2,64.9,29.82,WNW,291,4.0,7.0,46,0.00,,,0.00,WUHU216DAVISVP2,2013-06-29 04:26:00,
2013-06-28 21:31:00,88.0,64.7,29.82,WNW,293,3.0,7.0,46,0.00,,,0.00,WUHU216DAVISVP2,2013-06-29 04:31:00,
2013-06-28 21:36:00,87.8,64.5,29.82,WNW,300,5.0,7.0,46,0.00,,,0.00,WUHU216DAVISVP2,2013-06-29 04:36:00,
2013-06-28 21:41:00,87.6,65.0,29.83,WNW,298,2.0,7.0,47,0.00,,,0.00,WUHU216DAVISVP2,2013-06-29 04:41:00,
2013-06-28 21:46:00,87.4,65.4,29.83,WNW,298,4.0,6.0,48,0.00,,,0.00,WUHU216DAVISVP2,2013-06-29 04:46:00,
2013-06-28 21:51:00,87.2,65.1,29.83,WNW,294,2.0,8.0,48,0.00,,,0.00,WUHU216DAVISVP2,2013-06-29 04:51:00,
2013-06-28 21:56:00,87.0,65.1,29.83,WNW,294,3.0,8.0,48,0.00,,,0.00,WUHU216DAVISVP2,2013-06-29 04:56:00,
2013-06-28 22:01:00,86.8,65.3,29.83,WNW,292,6.0,6.0,49,0.00,,,0.00,WUHU216DAVISVP2,2013-06-29 05:01:00,
2013-06-28 22:06:00,86.7,65.4,29.83,WNW,292,4.0,7.0,49,0.00,,,0.00,WUHU216DAVISVP2,2013-06-29 05:06:00,
2013-06-28 22:11:00,86.5,65.2,29.83,WNW,292,5.0,7.0,49,0.00,,,0.00,WUHU216DAVISVP2,2013-06-29 05:11:00,
2013-06-28 22:16:00,86.2,65.5,29.83,WNW,292,4.0,7.0,50,0.00,,,0.00,WUHU216DAVISVP2,2013-06-29 05:16:00,
2013-06-28 22:21:00,85.9,65.3,29.83,WNW,292,4.0,6.0,50,0.00,,,0.00,WUHU216DAVISVP2,2013-06-29 05:21:00,
2013-06-28 22:26:00,85.7,64.9,29.84,WNW,294,3.0,6.0,50,0.00,,,0.00,WUHU216DAVISVP2,2013-06-29 05:26:00,
2013-06-28 22:31:00,85.5,65.5,29.83,WNW,294,3.0,6.0,51,0.00,,,0.00,WUHU216DAVISVP2,2013-06-29 05:31:00,
2013-06-28 22:36:00,85.3,65.3,29.84,WNW,297,6.0,6.0,51,0.00,,,0.00,WUHU216DAVISVP2,2013-06-29 05:36:00,
2013-06-28 22:41:00,85.2,65.2,29.84,WNW,301,4.0,7.0,51,0.00,,,0.00,WUHU216DAVISVP2,2013-06-29 05:41:00,
2013-06-28 22:46:00,85.1,64.5,29.84,NW,315,6.0,7.0,50,0.00,,,0.00,WUHU216DAVISVP2,2013-06-29 05:46:00,
2013-06-28 22:51:00,85.1,65.1,29.84,NW,314,5.0,7.0,51,0.00,,,0.00,WUHU216DAVISVP2,2013-06-29 05:51:00,
2013-06-28 22:56:00,85.0,64.3,29.84,NW,313,1.0,6.0,50,0.00,,,0.00,WUHU216DAVISVP2,2013-06-29 05:56:00,
2013-06-28 23:01:00,85.0,64.4,29.84,WNW,298,4.0,7.0,50,0.00,,,0.00,WUHU216DAVISVP2,2013-06-29 06:01:00,
2013-06-28 23:06:00,84.8,64.2,29.84,NW,310,4.0,7.0,50,0.00,,,0.00,WUHU216DAVISVP2,2013-06-29 06:06:00,
2013-06-28 23:11:00,84.9,64.3,29.84,WNW,298,2.0,7.0,50,0.00,,,0.00,WUHU216DAVISVP2,2013-06-29 06:11:00,
2013-06-28 23:16:00,84.8,64.2,29.84,WNW,298,4.0,7.0,50,0.00,,,0.00,WUHU216DAVISVP2,2013-06-29 06:16:00,
2013-06-28 23:21:00,84.5,64.4,29.84,WNW,298,2.0,6.0,51,0.00,,,0.00,WUHU216DAVISVP2,2013-06-29 06:21:00,
2013-06-28 23:26:00,84.0,64.7,29.84,WNW,298,2.0,6.0,52,0.00,,,0.00,WUHU216DAVISVP2,2013-06-29 06:26:00,
2013-06-28 23:31:00,83.2,64.5,29.85,NW,310,0.0,5.0,53,0.00,,,0.00,WUHU216DAVISVP2,2013-06-29 06:31:00,
2013-06-28 23:36:00,82.1,64.5,29.85,NW,310,0.0,5.0,55,0.00,,,0.00,WUHU216DAVISVP2,2013-06-29 06:36:00,
2013-06-28 23:41:00,81.0,64.5,29.85,NW,310,0.0,3.0,57,0.00,,,0.00,WUHU216DAVISVP2,2013-06-29 06:41:00,
2013-06-28 23:46:00,80.6,64.7,29.85,NW,310,0.0,3.0,58,0.00,,,0.00,WUHU216DAVISVP2,2013-06-29 06:46:00,
2013-06-28 23:51:00,80.7,64.8,29.85,NW,310,2.0,3.0,58,0.00,,,0.00,WUHU216DAVISVP2,2013-06-29 06:51:00,
2013-06-28 23:56:00,80.9,64.5,29.85,NW,310,0.0,4.0,57,0.00,,,0.00,WUHU216DAVISVP2,2013-06-29 06:56:00,